Location: Fort Wayne
(41.1310°N, 85.1290°W)
Time: 23:57:09
(UTC-04:00)

OPAL - Visible Passes

Search period start: 24 April 2014 00:00
Search period end: 04 May 2014 00:00
Orbit: 745 x 796 km, 100.2° (Epoch: 24 April)

Date Brightness Start Highest point End Pass type
(mag) Time Alt. Az. Time Alt. Az. Time Alt. Az.
24 Apr 10.0 02:03:24 13° ENE 02:04:21 14° ENE 02:06:50 10° NNE visible
24 Apr 8.0 03:43:41 54° NNW 03:43:41 54° NNW 03:47:40 10° NNW visible
25 Apr 8.4 03:07:51 46° NE 03:07:51 46° NE 03:12:22 10° N visible
25 Apr 9.2 04:48:09 18° WNW 04:48:09 18° WNW 04:50:23 10° NW visible
26 Apr 9.4 02:32:01 23° ENE 02:32:34 23° ENE 02:36:33 10° N visible
26 Apr 8.2 04:12:19 38° WNW 04:12:19 38° WNW 04:16:05 10° NNW visible
27 Apr 10.2 01:56:15 10° ENE 01:57:54 12° NE 01:59:33 10° NE visible
27 Apr 7.6 03:36:29 71° N 03:36:29 71° N 03:41:06 10° NNW visible
27 Apr 9.6 05:16:47 10° WNW 05:16:47 10° WNW 05:16:56 10° WNW visible
28 Apr 8.6 03:00:39 39° ENE 03:00:54 39° ENE 03:05:41 10° N visible
28 Apr 8.8 04:40:57 24° WNW 04:40:57 24° WNW 04:44:07 10° NW visible
29 Apr 9.6 02:24:49 18° E 02:26:05 20° ENE 02:29:43 10° NNE visible
29 Apr 7.8 04:05:07 52° WNW 04:05:07 52° WNW 04:09:36 10° NNW visible
30 Apr 7.7 03:29:17 69° ENE 03:29:21 69° ENE 03:34:30 10° N visible
30 Apr 9.3 05:09:35 14° W 05:09:35 14° W 05:11:23 10° WNW visible
01 May 8.9 02:53:27 31° E 02:54:23 33° ENE 02:58:58 10° N visible
01 May 8.4 04:33:45 30° W 04:33:45 30° W 04:37:47 10° NW visible
02 May 9.9 02:17:37 14° E 02:19:36 17° ENE 02:22:47 10° NNE visible
02 May 7.4 03:57:55 67° WSW 03:57:55 67° WSW 04:03:05 10° NNW visible
03 May 8.0 03:22:05 52° ESE 03:22:47 57° ENE 03:27:52 10° N visible
03 May 9.1 05:02:23 17° W 05:02:23 17° W 05:05:24 10° NW visible
